Home > Weather > Pickering > Past weeks

Flag for Canada Weather for the Past 2 Weeks in Pickering, Ontario, Canada

Now
10 °F

Passing clouds.


Feels Like: -5 °F
Forecast: N/A
Wind: 14 mph from Northwest

Location: Toronto Buttonville

Current Time: Feb 11, 2016 at 4:56:03 PM

Latest Report: Feb 11, 2016 at 4:00 PM


Visibility: 15 mi

Pressure: 30.15 "Hg

Humidity: 52%

Dew point: -4 °F

Location of PickeringLocation

Historic Weather in Pickering — Graph

°F

Pickering Temperature Yesterday

Maximum temperature yesterday: 30 °F (at 12:00 AM)
Minimum temperature yesterday: 10 °F (at 11:00 PM)
Average temperature yesterday: 22 °F

High & Low Weather Summary for the Past Weeks

 TemperatureHumidityPressure
High59 °F (Feb 3, 3:00 PM)100% (Jan 31, 6:00 PM)30.36 "Hg (Jan 31, 6:00 PM)
Low0 °F (Feb 11, 7:00 AM)34% (Feb 3, 4:00 PM)29.44 "Hg (Feb 1, 12:00 AM)
Average31 °F74%29.86 "Hg
* Reported Jan 27 3:00 PM — Feb 11 3:00 PM, Pickering, Weather by CustomWeather, © 2016

Note: Actual official high and low records may vary slightly from our data, if they occured in-between our weather recording intervals... More about our weather records

Advertising

Pickering Weather History for the Previous 24 Hours

 ConditionsComfort  
Time TempWeatherWind HumidityBarometerVisibility
3:00 PM
Thu, Feb 11
12 °FLight mixture of precip. Partly sunny.15 mph52%30.12 "Hg13 mi
2:00 PM10 °FPassing clouds.13 mph56%30.11 "Hg15 mi
1:00 PM9 °FPassing clouds.14 mph56%30.10 "Hg15 mi
12:00 PM7 °FPassing clouds.14 mph56%30.09 "Hg15 mi
11:00 AM5 °FPassing clouds.14 mph55%30.08 "Hg15 mi
10:00 AM1 °FPassing clouds.12 mph65%30.07 "Hg15 mi
9:00 AM1 °FPassing clouds.10 mph60%30.04 "Hg15 mi
8:00 AM0 °FPassing clouds.15 mph65%30.02 "Hg15 mi
7:00 AM0 °FPassing clouds.15 mph65%29.99 "Hg10 mi
6:00 AM1 °FPassing clouds.13 mph65%29.96 "Hg15 mi
5:50 AM1 °FPassing clouds.14 mph65%29.96 "Hg15 mi
5:00 AM1 °FSnow flurries. Passing clouds.13 mph65%29.93 "Hg15 mi
4:00 AM3 °FPassing clouds.13 mph72%29.90 "Hg15 mi
3:50 AM3 °FPassing clouds.16 mph72%29.89 "Hg15 mi
3:00 AM5 °FPassing clouds.10 mph78%29.88 "Hg15 mi
2:00 AM7 °FPassing clouds.8 mph78%29.86 "Hg15 mi
1:00 AM9 °FPassing clouds.8 mph66%29.84 "Hg15 mi
12:00 AM10 °FPassing clouds.9 mph61%29.83 "Hg15 mi
11:00 PM
Wed, Feb 10
10 °FPassing clouds.8 mph61%29.83 "Hg15 mi
10:00 PM12 °FSnow flurries. Passing clouds.12 mph73%29.83 "Hg12 mi
9:00 PM14 °FSnow flurries. Overcast.7 mph73%29.82 "Hg10 mi
8:00 PM14 °FSnow flurries. Overcast.8 mph67%29.81 "Hg12 mi
7:00 PM16 °FSnow flurries. Passing clouds.12 mph67%29.79 "Hg9 mi
6:00 PM18 °FSnow flurries. Mostly cloudy.13 mph73%29.77 "Hg9 mi
5:51 PM18 °FSnow flurries. Ice fog.9 mph86%29.76 "Hg3 mi
5:00 PM19 °FSnow flurries. Ice fog.12 mph86%29.74 "Hg1 mi
4:04 PM21 °FSnow flurries. Overcast.7 mph80%29.71 "Hg2 mi
Weather by CustomWeather, © 2016

See weather overviewHow to use our weather pages